Find GPS IIF-10

NORAD ID: 40730 Int'l Des: 2015-033 Owner: AFSMC Country: US Constellation: GPS operational
MEOGNSS

当前视图

正在加载3D地球...

About GPS IIF-10

GPS IIF-10 (NORAD 40730) is a GPS constellation satellite launched Jul 15, 2015 by AFSMC of US. It operates in MEO, GNSS orbit with a mass of 1630.00 kg.

关于 GPS IIF-10

正在加载描述...

即将过境

Passes for default location (London). Set your location on the main map for personalized predictions.

高度历史

Loading altitude history...

两行轨道根数

1 40730U 15033A 26165.72805942 -.00000015 00000-0 00000+0 0 9999
2 40730 53.9843 267.1880 0115073 30.2246 330.4667 2.00556296 79947
Epoch: Jun 14, 2026 • Age: 18 hours

当前状态

高度 20455.8 km
速度 3.83 km/s
星下点 -2.79°S, 13°E
发射日期 Jul 15, 2015
运行时间 10.9 years
类型 navigation

技术详情

分类 Payload
质量 1630.00 kg
干质量 1500.00 kg
总质量 1630.00 kg
长度 2.50 m
直径 1.80 m
跨度 18.00 m
形状 Box + 2 Pan
制造商 BOES
平台类型 GPS IIF
阶段状态 In Orbit
所有者/国家 AFSMC/US

Most Searched